Flag for Germany Weather past 2 weeks in Kassel, Hesse, Germany

Now
57 °F

Passing clouds.


Feels Like: 57 °F
Forecast: 55 / 83 °F
Wind: 3 mph from Northwest

Location: Fritzlar Airport

Current Time: Aug 1, 2014 at 2:51:10 AM

Latest Report: Aug 1, 2014 at 1:20 AM


Visibility: N/A

Pressure: 29.98 "Hg

Humidity: 94%

Dew point: 55 °F

Location of KasselLocation

Historic Weather in Kassel — Graph

°F

Kassel temperature yesterday

Maximum temperature yesterday: 77 °F (at 4:20 PM)
Minimum temperature yesterday: 57 °F (at 3:20 AM)
Average temperature yesterday: 67 °F

Past Weeks' High & Low Weather Summary

 TemperatureHumidityPressure
High88 °F (Jul 19, 2:20 PM)100% (Jul 25, 5:20 AM)30.21 "Hg (Jul 25, 5:20 AM)
Low57 °F (Jul 17, 4:20 AM)33% (Jul 19, 3:20 PM)29.74 "Hg (Jul 29, 5:00 PM)
Average70 °F74%29.95 "Hg
* Reported Jul 17 1:20 AM — Aug 1 1:20 AM, Kassel, Weather by CustomWeather, © 2014

Note: Actual official high and low records may vary slightly from our data, if they occured in-between our weather recording intervals... More about our weather records

Advertising

Kassel weather history for previous 24 hours

 ConditionsComfort  
Time TempWeatherWind HumidityBarometerVisibility
1:20 AM
Aug 1
57 °FPassing clouds.3 mph94%29.98 "HgN/A
12:20 AM59 °FPassing clouds.3 mph88%29.98 "HgN/A
11:20 PM
Jul 31
59 °FPassing clouds.3 mph88%29.95 "HgN/A
10:20 PM63 °FPassing clouds.3 mph77%29.95 "HgN/A
9:20 PM64 °FPassing clouds.2 mph78%29.95 "HgN/A
8:20 PM72 °FPassing clouds.3 mph61%29.95 "HgN/A
7:20 PM75 °FPassing clouds.5 mph50%29.95 "HgN/A
6:20 PM77 °FPassing clouds.3 mph42%29.95 "HgN/A
5:20 PM77 °FScattered clouds.5 mph39%29.95 "HgN/A
5:00 PM77 °FScattered clouds.6 mph36%29.95 "HgN/A
4:20 PM77 °FScattered clouds.6 mph39%29.95 "HgN/A
3:20 PM75 °FScattered clouds.2 mph47%29.98 "HgN/A
2:20 PM73 °FScattered clouds.5 mph53%29.98 "HgN/A
1:20 PM72 °FScattered clouds.3 mph57%30.01 "HgN/A
12:20 PM72 °FScattered clouds.5 mph57%30.01 "HgN/A
11:20 AM70 °FScattered clouds.3 mph60%30.01 "HgN/A
10:20 AM68 °FScattered clouds.3 mph64%30.01 "HgN/A
9:20 AM66 °FPassing clouds.3 mph73%30.01 "HgN/A
8:20 AM63 °FPassing clouds.5 mph83%30.01 "HgN/A
7:20 AM59 °FPassing clouds.2 mph94%30.01 "HgN/A
6:20 AM57 °FPassing clouds.5 mph94%30.01 "HgN/A
5:20 AM59 °FPassing clouds.5 mph88%29.98 "HgN/A
4:20 AM57 °FPassing clouds.5 mph94%29.98 "HgN/A
3:20 AM57 °FCool.5 mph94%29.98 "HgN/A
2:20 AM61 °FCool.2 mph88%29.95 "HgN/A
Weather by CustomWeather, © 2014

See weather overviewHow to use our weather pages